| time (UTC) | temp F | wind direction | speed MPH | gust MPH | rain 1hr in | rain 24hr in | rain mn in | humidity % | barometer mb |
| 20260503220005 | 59 | 50 | 7.0 | 12.0 | 0.00 | 0.00 | 0.00 | 40 | 1011.4 |
| 20260503215503 | 59 | 50 | 9.0 | 13.0 | 0.00 | 0.00 | 0.00 | 38 | 1011.4 |
| 20260503215001 | 58 | 50 | 10.0 | 18.0 | 0.00 | 0.00 | 0.00 | 40 | 1011.5 |
| 20260503213501 | 59 | 50 | 9.0 | 15.0 | 0.00 | 0.00 | 0.00 | 37 | 1011.4 |
| 20260503213003 | 59 | 50 | 8.0 | 14.0 | 0.00 | 0.00 | 0.00 | 37 | 1011.3 |
| 20260503212501 | 59 | 50 | 10.0 | 17.0 | 0.00 | 0.00 | 0.00 | 36 | 1011.2 |
| 20260503212001 | 59 | 50 | 10.0 | 18.0 | 0.00 | 0.00 | 0.00 | 37 | 1011.2 |
| 20260503211502 | 58 | 50 | 9.0 | 18.0 | 0.00 | 0.00 | 0.00 | 35 | 1011.3 |
| 20260503211001 | 58 | 50 | 11.0 | 23.0 | 0.00 | 0.00 | 0.00 | 37 | 1011.2 |
| 20260503210501 | 59 | 50 | 11.0 | 23.0 | 0.00 | 0.00 | 0.00 | 34 | 1011.2 |
| 20260503210005 | 59 | 50 | 9.0 | 17.0 | 0.00 | 0.00 | 0.00 | 38 | 1011.3 |
| 20260503205001 | 58 | 50 | 10.0 | 23.0 | 0.00 | 0.00 | 0.00 | 37 | 1011.2 |
| 20260503204502 | 59 | 50 | 9.0 | 17.0 | 0.00 | 0.00 | 0.00 | 36 | 1011.3 |
| 20260503204001 | 58 | 50 | 11.0 | 19.0 | 0.00 | 0.00 | 0.00 | 36 | 1011.3 |
| 20260503203501 | 58 | 50 | 11.0 | 19.0 | 0.00 | 0.00 | 0.00 | 36 | 1011.3 |
| 20260503202501 | 59 | 50 | 10.0 | 17.0 | 0.00 | 0.00 | 0.00 | 35 | 1011.4 |
| 20260503202001 | 58 | 50 | 10.0 | 16.0 | 0.00 | 0.00 | 0.00 | 37 | 1011.4 |
| 20260503201502 | 58 | 50 | 10.0 | 16.0 | 0.00 | 0.00 | 0.00 | 34 | 1011.6 |
| 20260503201001 | 59 | 50 | 10.0 | 20.0 | 0.00 | 0.00 | 0.00 | 35 | 1011.5 |
| 20260503200004 | 58 | 50 | 8.0 | 19.0 | 0.00 | 0.00 | 0.00 | 38 | 1011.7 |
| 20260503195501 | 58 | 50 | 10.0 | 23.0 | 0.00 | 0.00 | 0.00 | 38 | 1011.8 |
| 20260503195001 | 57 | 50 | 11.0 | 23.0 | 0.00 | 0.00 | 0.00 | 38 | 1011.8 |
| 20260503194502 | 57 | 50 | 12.0 | 20.0 | 0.00 | 0.00 | 0.00 | 38 | 1011.9 |
| 20260503194001 | 56 | 50 | 13.0 | 21.0 | 0.00 | 0.00 | 0.00 | 37 | 1012.0 |
| 20260503193501 | 57 | 50 | 11.0 | 21.0 | 0.00 | 0.00 | 0.00 | 37 | 1012.0 |
| 20260503193004 | 56 | 50 | 11.0 | 21.0 | 0.00 | 0.00 | 0.00 | 39 | 1012.1 |
| 20260503192501 | 56 | 50 | 12.0 | 21.0 | 0.00 | 0.00 | 0.00 | 40 | 1012.1 |
| 20260503192001 | 57 | 50 | 12.0 | 21.0 | 0.00 | 0.00 | 0.00 | 37 | 1012.1 |
| 20260503191001 | 56 | 337 | 12.0 | 21.0 | 0.00 | 0.00 | 0.00 | 39 | 1012.2 |
| 20260503190502 | 56 | 323 | 12.0 | 21.0 | 0.00 | 0.00 | 0.00 | 38 | 1012.2 |
| 20260503190004 | 56 | 324 | 11.0 | 22.0 | 0.00 | 0.00 | 0.00 | 40 | 1012.3 |
| 20260503185501 | 56 | 277 | 11.0 | 22.0 | 0.00 | 0.00 | 0.00 | 39 | 1012.3 |
| 20260503184001 | 55 | 307 | 13.0 | 24.0 | 0.00 | 0.00 | 0.00 | 39 | 1012.5 |
| 20260503183501 | 56 | 293 | 11.0 | 22.0 | 0.00 | 0.00 | 0.00 | 40 | 1012.6 |
| 20260503183002 | 55 | 275 | 9.0 | 22.0 | 0.00 | 0.00 | 0.00 | 43 | 1012.6 |
| 20260503182501 | 54 | 347 | 9.0 | 18.0 | 0.00 | 0.00 | 0.00 | 44 | 1012.7 |
| 20260503182002 | 54 | 281 | 10.0 | 19.0 | 0.00 | 0.00 | 0.00 | 43 | 1012.8 |
| 20260503181502 | 54 | 348 | 11.0 | 23.0 | 0.00 | 0.00 | 0.00 | 40 | 1012.7 |
| 20260503180501 | 55 | 319 | 10.0 | 23.0 | 0.00 | 0.00 | 0.00 | 40 | 1012.7 |
| 20260503180003 | 54 | 294 | 10.0 | 23.0 | 0.00 | 0.00 | 0.00 | 42 | 1012.9 |
| 20260503175501 | 53 | 330 | 11.0 | 26.0 | 0.00 | 0.00 | 0.00 | 44 | 1012.9 |
| 20260503175001 | 54 | 298 | 12.0 | 26.0 | 0.00 | 0.00 | 0.00 | 40 | 1012.9 |
| 20260503174001 | 53 | 264 | 11.0 | 18.0 | 0.00 | 0.00 | 0.00 | 43 | 1012.9 |
| 20260503173501 | 53 | 268 | 10.0 | 22.0 | 0.00 | 0.00 | 0.00 | 44 | 1013.0 |
| 20260503173002 | 53 | 267 | 10.0 | 22.0 | 0.00 | 0.00 | 0.00 | 44 | 1013.0 |
| 20260503172501 | 53 | 300 | 10.0 | 18.0 | 0.00 | 0.00 | 0.00 | 42 | 1013.0 |
| 20260503171502 | 53 | 300 | 10.0 | 20.0 | 0.00 | 0.00 | 0.00 | 48 | 1013.2 |
| 20260503171001 | 53 | 294 | 11.0 | 20.0 | 0.00 | 0.00 | 0.00 | 43 | 1013.3 |
| 20260503170501 | 53 | 279 | 9.0 | 18.0 | 0.00 | 0.00 | 0.00 | 44 | 1013.2 |
| 20260503151001 | 48 | 314 | 8.0 | 15.0 | 0.00 | 0.00 | 0.00 | 52 | 1013.9 |
| 20260503150501 | 48 | 335 | 6.0 | 15.0 | 0.00 | 0.00 | 0.00 | 54 | 1013.9 |
| 20260503131001 | 45 | 50 | 8.0 | 16.0 | 0.00 | 0.00 | 0.00 | 61 | 1014.2 |
| 20260503130501 | 44 | 50 | 10.0 | 19.0 | 0.00 | 0.00 | 0.00 | 62 | 1014.2 |
| 20260503090501 | 42 | 50 | 3.0 | 9.0 | 0.00 | 0.00 | 0.00 | 64 | 1012.1 |
| 20260503081503 | 43 | 50 | 6.0 | 12.0 | 0.00 | 0.00 | 0.00 | 64 | 1012.0 |
| 20260503081001 | 43 | 50 | 6.0 | 12.0 | 0.00 | 0.00 | 0.00 | 64 | 1011.9 |
| 20260503080501 | 43 | 50 | 5.0 | 10.0 | 0.00 | 0.00 | 0.00 | 65 | 1011.8 |
| 20260503072501 | 43 | 50 | 6.0 | 13.0 | 0.00 | 0.00 | 0.00 | 63 | 1011.6 |
| 20260503071501 | 43 | 50 | 7.0 | 13.0 | 0.00 | 0.00 | 0.00 | 64 | 1011.6 |
| 20260503071001 | 43 | 50 | 5.0 | 11.0 | 0.00 | 0.00 | 0.00 | 63 | 1011.6 |
| 20260503054502 | 45 | 50 | 5.0 | 13.0 | 0.00 | 0.04 | 0.00 | 62 | 1011.9 |
| 20260503054001 | 45 | 50 | 4.0 | 10.0 | 0.00 | 0.04 | 0.00 | 63 | 1011.8 |
| 20260503052501 | 45 | 50 | 5.0 | 11.0 | 0.00 | 0.04 | 0.00 | 63 | 1011.9 |
| 20260503052001 | 46 | 50 | 6.0 | 11.0 | 0.00 | 0.04 | 0.00 | 63 | 1011.9 |
| 20260503051502 | 46 | 50 | 6.0 | 11.0 | 0.00 | 0.04 | 0.00 | 63 | 1011.9 |
| 20260503051001 | 46 | 50 | 7.0 | 12.0 | 0.00 | 0.04 | 0.00 | 63 | 1012.0 |
| 20260503050501 | 46 | 50 | 8.0 | 12.0 | 0.00 | 0.04 | 0.00 | 62 | 1012.0 |
| 20260503045501 | 46 | 50 | 6.0 | 14.0 | 0.00 | 0.04 | 0.00 | 62 | 1012.1 |
| 20260503045001 | 46 | 50 | 6.0 | 10.0 | 0.00 | 0.04 | 0.00 | 63 | 1012.1 |
| 20260503044501 | 46 | 50 | 6.0 | 9.0 | 0.00 | 0.04 | 0.00 | 63 | 1012.2 |
| 20260503044001 | 46 | 50 | 5.0 | 9.0 | 0.00 | 0.04 | 0.00 | 63 | 1012.2 |
| 20260503043501 | 46 | 50 | 5.0 | 12.0 | 0.00 | 0.04 | 0.00 | 62 | 1012.2 |
| 20260503043002 | 46 | 50 | 5.0 | 12.0 | 0.00 | 0.04 | 0.00 | 62 | 1012.3 |
| 20260503041501 | 47 | 50 | 7.0 | 11.0 | 0.00 | 0.04 | 0.00 | 61 | 1012.4 |
| 20260503041001 | 47 | 50 | 8.0 | 16.0 | 0.00 | 0.04 | 0.00 | 61 | 1012.3 |
| 20260503040501 | 47 | 50 | 9.0 | 16.0 | 0.00 | 0.04 | 0.00 | 60 | 1012.4 |
| 20260503040002 | 47 | 50 | 8.0 | 15.0 | 0.00 | 0.04 | 0.04 | 60 | 1012.4 |
| 20260503035501 | 47 | 50 | 6.0 | 12.0 | 0.00 | 0.04 | 0.04 | 61 | 1012.4 |
| 20260503035001 | 47 | 50 | 4.0 | 12.0 | 0.00 | 0.04 | 0.04 | 62 | 1012.4 |
| 20260503034501 | 47 | 50 | 2.0 | 8.0 | 0.00 | 0.04 | 0.04 | 62 | 1012.4 |
| 20260503034001 | 47 | 50 | 1.0 | 3.0 | 0.00 | 0.04 | 0.04 | 63 | 1012.4 |
| 20260503033501 | 47 | 50 | 2.0 | 5.0 | 0.00 | 0.04 | 0.04 | 63 | 1012.3 |
| 20260503033001 | 47 | 50 | 3.0 | 5.0 | 0.00 | 0.04 | 0.04 | 63 | 1012.4 |
| 20260503032501 | 47 | 50 | 3.0 | 6.0 | 0.00 | 0.04 | 0.04 | 62 | 1012.3 |
| 20260503032001 | 47 | 50 | 3.0 | 6.0 | 0.00 | 0.04 | 0.04 | 62 | 1012.4 |
| 20260503031502 | 47 | 50 | 4.0 | 8.0 | 0.00 | 0.04 | 0.04 | 62 | 1012.3 |
| 20260503031001 | 47 | 50 | 5.0 | 8.0 | 0.00 | 0.04 | 0.04 | 60 | 1012.3 |
| 20260503030501 | 47 | 50 | 4.0 | 8.0 | 0.00 | 0.04 | 0.04 | 60 | 1012.3 |
| 20260503030004 | 47 | 50 | 5.0 | 10.0 | 0.00 | 0.04 | 0.04 | 60 | 1012.3 |
| 20260503025501 | 47 | 50 | 5.0 | 11.0 | 0.00 | 0.04 | 0.04 | 60 | 1012.3 |
| 20260503025001 | 47 | 50 | 5.0 | 11.0 | 0.00 | 0.04 | 0.04 | 60 | 1012.4 |
| 20260503024501 | 48 | 50 | 4.0 | 8.0 | 0.00 | 0.04 | 0.04 | 60 | 1012.4 |
| 20260503024001 | 48 | 50 | 4.0 | 8.0 | 0.00 | 0.04 | 0.04 | 61 | 1012.4 |
| 20260503023501 | 48 | 50 | 4.0 | 8.0 | 0.00 | 0.04 | 0.04 | 60 | 1012.4 |
| 20260503023002 | 48 | 50 | 5.0 | 10.0 | 0.00 | 0.04 | 0.04 | 59 | 1012.4 |
| 20260503022501 | 48 | 50 | 4.0 | 10.0 | 0.00 | 0.04 | 0.04 | 59 | 1012.4 |
| 20260503021501 | 48 | 50 | 4.0 | 6.0 | 0.00 | 0.04 | 0.04 | 59 | 1012.5 |
| 20260503021001 | 48 | 50 | 3.0 | 6.0 | 0.00 | 0.04 | 0.04 | 59 | 1012.5 |
| 20260503020501 | 48 | 50 | 3.0 | 6.0 | 0.00 | 0.04 | 0.04 | 59 | 1012.5 |
| 20260503020002 | 48 | 50 | 3.0 | 5.0 | 0.00 | 0.04 | 0.04 | 59 | 1012.5 |
| 20260503015501 | 48 | 50 | 3.0 | 6.0 | 0.00 | 0.04 | 0.04 | 58 | 1012.5 |
| 20260503015001 | 49 | 50 | 3.0 | 6.0 | 0.00 | 0.04 | 0.04 | 59 | 1012.4 |
| 20260503014502 | 49 | 50 | 3.0 | 6.0 | 0.00 | 0.04 | 0.04 | 58 | 1012.4 |
| 20260503014001 | 49 | 50 | 3.0 | 9.0 | 0.00 | 0.04 | 0.04 | 58 | 1012.4 |
| 20260503013501 | 49 | 50 | 4.0 | 9.0 | 0.00 | 0.04 | 0.04 | 59 | 1012.4 |
| 20260503013002 | 49 | 50 | 3.0 | 6.0 | 0.00 | 0.04 | 0.04 | 58 | 1012.4 |
| 20260503011502 | 49 | 50 | 4.0 | 8.0 | 0.00 | 0.04 | 0.04 | 57 | 1012.3 |
| 20260503010501 | 49 | 50 | 4.0 | 8.0 | 0.00 | 0.04 | 0.04 | 57 | 1012.3 |
| 20260503010002 | 49 | 50 | 5.0 | 10.0 | 0.00 | 0.04 | 0.04 | 55 | 1012.3 |
| 20260503005501 | 49 | 50 | 5.0 | 10.0 | 0.00 | 0.04 | 0.04 | 55 | 1012.2 |
| 20260503005002 | 49 | 50 | 5.0 | 9.0 | 0.00 | 0.04 | 0.04 | 55 | 1012.1 |
| 20260503004502 | 50 | 50 | 4.0 | 9.0 | 0.00 | 0.04 | 0.04 | 55 | 1012.0 |
| 20260503003501 | 50 | 50 | 5.0 | 10.0 | 0.00 | 0.04 | 0.04 | 54 | 1012.0 |
| 20260503003001 | 50 | 50 | 5.0 | 10.0 | 0.00 | 0.04 | 0.04 | 54 | 1012.0 |
| 20260503002500 | 50 | 50 | 4.0 | 10.0 | 0.00 | 0.04 | 0.04 | 52 | 1011.9 |
| 20260503002001 | 50 | 50 | 4.0 | 8.0 | 0.00 | 0.04 | 0.04 | 52 | 1011.8 |
| 20260503001502 | 50 | 50 | 4.0 | 9.0 | 0.00 | 0.04 | 0.04 | 51 | 1011.8 |
| 20260503000501 | 50 | 50 | 5.0 | 10.0 | 0.00 | 0.04 | 0.04 | 51 | 1011.8 |
| 20260503000001 | 51 | 50 | 5.0 | 10.0 | 0.00 | 0.04 | 0.04 | 50 | 1011.7 |
| 20260502235501 | 51 | 50 | 5.0 | 9.0 | 0.00 | 0.04 | 0.04 | 50 | 1011.7 |
| 20260502235001 | 51 | 50 | 4.0 | 8.0 | 0.00 | 0.04 | 0.04 | 51 | 1011.6 |
| 20260502234501 | 51 | 50 | 4.0 | 8.0 | 0.00 | 0.04 | 0.04 | 51 | 1011.4 |
| 20260502234001 | 52 | 50 | 5.0 | 9.0 | 0.00 | 0.04 | 0.04 | 51 | 1011.4 |
| 20260502233501 | 52 | 50 | 5.0 | 9.0 | 0.00 | 0.04 | 0.04 | 50 | 1011.4 |
| 20260502233002 | 52 | 50 | 6.0 | 10.0 | 0.00 | 0.04 | 0.04 | 50 | 1011.3 |
| 20260502231502 | 53 | 50 | 5.0 | 13.0 | 0.00 | 0.04 | 0.04 | 47 | 1011.4 |
| 20260502231001 | 53 | 50 | 4.0 | 13.0 | 0.00 | 0.04 | 0.04 | 48 | 1011.5 |
| 20260502230501 | 53 | 50 | 3.0 | 6.0 | 0.00 | 0.04 | 0.04 | 48 | 1011.4 |
| 20260502230001 | 53 | 50 | 3.0 | 6.0 | 0.00 | 0.04 | 0.04 | 47 | 1011.5 |
| 20260502225501 | 53 | 50 | 4.0 | 9.0 | 0.00 | 0.04 | 0.04 | 48 | 1011.5 |
| 20260502225001 | 53 | 50 | 5.0 | 10.0 | 0.00 | 0.04 | 0.04 | 47 | 1011.5 |
| 20260502224502 | 53 | 50 | 6.0 | 10.0 | 0.00 | 0.04 | 0.04 | 45 | 1011.5 |
| 20260502224001 | 53 | 50 | 6.0 | 11.0 | 0.00 | 0.04 | 0.04 | 45 | 1011.5 |
| 20260502223500 | 53 | 50 | 8.0 | 16.0 | 0.00 | 0.04 | 0.04 | 47 | 1011.4 |
| 20260502223002 | 54 | 50 | 6.0 | 16.0 | 0.00 | 0.04 | 0.04 | 45 | 1011.3 |
| 20260502222501 | 54 | 50 | 6.0 | 13.0 | 0.00 | 0.04 | 0.04 | 46 | 1011.3 |
| 20260502222001 | 54 | 50 | 7.0 | 13.0 | 0.00 | 0.04 | 0.04 | 45 | 1011.2 |
| 20260502221501 | 55 | 50 | 6.0 | 12.0 | 0.00 | 0.04 | 0.04 | 44 | 1011.2 |
| 20260502220500 | 54 | 50 | 4.0 | 9.0 | 0.00 | 0.04 | 0.04 | 45 | 1011.1 |